STARLINK-32235

Last updated on Sat Sep 28 2024 00:02:03 GMT+0000 (Coordinated Universal Time)

1 60739U 24152V 24271.58334491 -.01511815 00000+0 -40191-1 0 9991 2 60739 53.1603 201.7325 0001079 84.2256 180.6996 15.40854147 6014

Satellite not in orbit